Location: Kapla
(46.2483°N, 15.0094°E)
Time: 20:13:26
(UTC+00:00)

Gbstr 26 Del rocket - Pass Details

Date: 03 March 2021
Orbit: 492 x 1263 km, 51.8° (Epoch: 20 April)

Event Time Altitude Azimuth Distance (km) Brightness Sun altitude
Rises 18:08:32 0° 276° (W) 2,791 8.4 -14.5°
Reaches altitude 10° 18:10:41 10° 283° (WNW) 1,975 7.0 -14.9°
Maximum altitude 18:15:02 45° 357° (N) 956 4.1 -15.6°
Enters shadow 18:18:28 20° 62° (ENE) 1,754 4.9 -16.2°
